| time (UTC) | temp C | wind direction | speed KPH | gust KPH | rain 1hr cm | rain 24hr cm | rain mn cm | humidity % | barometer mb |
| 20260506150032 | 7 | 290 | 8.0 | 19.3 | 0.00 | 0.00 | 0.00 | 60 | 1012.2 |
| 20260506144538 | 7 | 11 | 9.7 | 20.9 | 0.00 | 0.00 | 0.00 | 61 | 1012.1 |
| 20260506143031 | 7 | 342 | 3.2 | 19.3 | 0.00 | 0.00 | 0.00 | 62 | 1011.9 |
| 20260506141533 | 6 | 11 | 16.1 | 24.1 | 0.00 | 0.00 | 0.00 | 61 | 1011.7 |
| 20260506140023 | 6 | 323 | 11.3 | 22.5 | 0.00 | 0.00 | 0.00 | 64 | 1011.5 |
| 20260506134518 | 6 | 342 | 11.3 | 22.5 | 0.00 | 0.00 | 0.00 | 66 | 1011.5 |
| 20260506133017 | 6 | 345 | 4.8 | 19.3 | 0.00 | 0.00 | 0.00 | 64 | 1011.5 |
| 20260506131510 | 5 | 350 | 14.5 | 30.6 | 0.00 | 0.00 | 0.00 | 65 | 1011.2 |
| 20260506130010 | 5 | 340 | 8.0 | 22.5 | 0.00 | 0.00 | 0.00 | 66 | 1011.2 |
| 20260506124506 | 4 | 19 | 16.1 | 25.7 | 0.00 | 0.00 | 0.00 | 65 | 1011.0 |
| 20260506123005 | 3 | 31 | 14.5 | 32.2 | 0.00 | 0.00 | 0.00 | 67 | 1010.7 |
| 20260506121501 | 3 | 5 | 20.9 | 30.6 | 0.00 | 0.00 | 0.00 | 68 | 1010.8 |
| 20260506120103 | 3 | 320 | 12.9 | 25.7 | 0.00 | 0.00 | 0.00 | 70 | 1010.7 |
| 20260506114555 | 3 | 343 | 12.9 | 20.9 | 0.00 | 0.00 | 0.00 | 70 | 1010.5 |
| 20260506113052 | 3 | 339 | 8.0 | 14.5 | 0.00 | 0.00 | 0.00 | 71 | 1010.7 |
| 20260506111548 | 2 | 333 | 6.4 | 16.1 | 0.00 | 0.00 | 0.00 | 72 | 1010.3 |
| 20260506110046 | 2 | 9 | 9.7 | 20.9 | 0.00 | 0.00 | 0.00 | 72 | 1009.6 |
| 20260506104547 | 2 | 347 | 9.7 | 17.7 | 0.00 | 0.00 | 0.00 | 72 | 1009.2 |
| 20260506103041 | 2 | 349 | 8.0 | 20.9 | 0.00 | 0.00 | 0.00 | 72 | 1008.9 |
| 20260506101539 | 2 | 24 | 8.0 | 19.3 | 0.00 | 0.00 | 0.00 | 73 | 1008.7 |
| 20260506100038 | 2 | 10 | 12.9 | 20.9 | 0.00 | 0.00 | 0.00 | 73 | 1008.4 |
| 20260506094537 | 2 | 13 | 8.0 | 16.1 | 0.00 | 0.00 | 0.00 | 73 | 1008.6 |
| 20260506093040 | 2 | 19 | 11.3 | 19.3 | 0.00 | 0.00 | 0.00 | 73 | 1008.6 |
| 20260506091534 | 2 | 355 | 11.3 | 19.3 | 0.00 | 0.00 | 0.00 | 74 | 1008.5 |
| 20260506090031 | 2 | 5 | 8.0 | 20.9 | 0.00 | 0.00 | 0.00 | 74 | 1008.9 |
| 20260506084535 | 2 | 355 | 11.3 | 19.3 | 0.00 | 0.00 | 0.00 | 75 | 1008.6 |
| 20260506083025 | 2 | 307 | 8.0 | 20.9 | 0.00 | 0.00 | 0.00 | 75 | 1008.7 |
| 20260506081522 | 3 | 355 | 12.9 | 24.1 | 0.00 | 0.00 | 0.00 | 76 | 1008.4 |
| 20260506073012 | 4 | 350 | 6.4 | 24.1 | 0.00 | 0.00 | 0.00 | 70 | 1008.2 |
| 20260506071511 | 4 | 355 | 9.7 | 22.5 | 0.00 | 0.00 | 0.00 | 68 | 1007.9 |
| 20260506061507 | 5 | 5 | 9.7 | 20.9 | 0.00 | 0.00 | 0.00 | 65 | 1007.3 |
| 20260506044601 | 4 | 11 | 8.0 | 16.1 | 0.00 | 0.00 | 0.00 | 74 | 1007.6 |
| 20260506043101 | 4 | 5 | 9.7 | 17.7 | 0.00 | 0.00 | 0.00 | 73 | 1007.7 |
| 20260506041556 | 4 | 10 | 11.3 | 17.7 | 0.00 | 0.00 | 0.00 | 76 | 1007.5 |
| 20260506040050 | 4 | 20 | 11.3 | 20.9 | 0.00 | 0.00 | 0.00 | 80 | 1007.1 |
| 20260506034553 | 5 | 360 | 6.4 | 16.1 | 0.00 | 0.00 | 0.00 | 80 | 1007.2 |
| 20260506033042 | 6 | 331 | 9.7 | 20.9 | 0.00 | 0.00 | 0.00 | 72 | 1007.0 |
| 20260506031540 | 7 | 251 | 3.2 | 6.4 | 0.00 | 0.00 | 0.00 | 65 | 1006.6 |
| 20260506030039 | 7 | 238 | 1.6 | 4.8 | 0.00 | 0.00 | 0.00 | 64 | 1006.6 |
| 20260506024538 | 8 | 238 | 0.0 | 4.8 | 0.00 | 0.00 | 0.00 | 63 | 1006.9 |
| 20260506023036 | 8 | 242 | 3.2 | 6.4 | 0.00 | 0.00 | 0.00 | 61 | 1006.6 |
| 20260506021544 | 9 | 230 | 4.8 | 8.0 | 0.00 | 0.00 | 0.00 | 59 | 1006.5 |
| 20260506020034 | 10 | 222 | 4.8 | 11.3 | 0.00 | 0.00 | 0.00 | 58 | 1006.4 |
| 20260506014532 | 10 | 225 | 6.4 | 11.3 | 0.00 | 0.00 | 0.00 | 59 | 1006.2 |
| 20260506013033 | 10 | 221 | 3.2 | 8.0 | 0.00 | 0.00 | 0.00 | 60 | 1006.1 |
| 20260506011548 | 10 | 194 | 1.6 | 6.4 | 0.00 | 0.00 | 0.00 | 65 | 1006.0 |
| 20260506010029 | 9 | 141 | 0.0 | 3.2 | 0.00 | 0.00 | 0.00 | 77 | 1006.0 |
| 20260506004539 | 9 | 141 | 0.0 | 3.2 | 0.00 | 0.00 | 0.00 | 77 | 1005.9 |
| 20260506003030 | 9 | 141 | 0.0 | 4.8 | 0.00 | 0.00 | 0.00 | 77 | 1005.8 |
| 20260506001527 | 10 | 141 | 3.2 | 4.8 | 0.00 | 0.00 | 0.00 | 76 | 1005.7 |
| 20260506000026 | 10 | 38 | 0.0 | 0.0 | 0.00 | 0.00 | 0.00 | 74 | 1005.4 |
| 20260505234528 | 10 | 38 | 1.6 | 4.8 | 0.00 | 0.00 | 0.00 | 73 | 1005.2 |
| 20260505233031 | 10 | 38 | 0.0 | 4.8 | 0.00 | 0.00 | 0.00 | 72 | 1005.1 |
| 20260505231531 | 10 | 38 | 4.8 | 17.7 | 0.00 | 0.00 | 0.00 | 70 | 1005.1 |
| 20260505230026 | 13 | 355 | 1.6 | 17.7 | 0.00 | 0.00 | 0.00 | 47 | 1005.1 |
| 20260505224522 | 13 | 238 | 4.8 | 14.5 | 0.00 | 0.00 | 0.00 | 45 | 1005.0 |
| 20260505223020 | 13 | 217 | 3.2 | 11.3 | 0.00 | 0.00 | 0.00 | 64 | 1005.1 |
| 20260505221519 | 13 | 223 | 4.8 | 14.5 | 0.00 | 0.00 | 0.00 | 65 | 1005.1 |
| 20260505220040 | 13 | 230 | 9.7 | 16.1 | 0.00 | 0.00 | 0.00 | 64 | 1005.0 |
| 20260505214525 | 13 | 209 | 6.4 | 22.5 | 0.00 | 0.00 | 0.00 | 65 | 1005.0 |
| 20260505213021 | 13 | 242 | 6.4 | 22.5 | 0.00 | 0.00 | 0.00 | 66 | 1005.2 |
| 20260505211517 | 13 | 155 | 8.0 | 17.7 | 0.00 | 0.00 | 0.00 | 65 | 1005.1 |
| 20260505210017 | 13 | 227 | 6.4 | 14.5 | 0.00 | 0.00 | 0.00 | 67 | 1004.9 |
| 20260505204518 | 12 | 225 | 3.2 | 17.7 | 0.00 | 0.00 | 0.00 | 66 | 1005.2 |
| 20260505203014 | 13 | 192 | 9.7 | 17.7 | 0.00 | 0.00 | 0.00 | 64 | 1005.4 |
| 20260505201517 | 12 | 205 | 8.0 | 19.3 | 0.00 | 0.00 | 0.00 | 64 | 1005.2 |
| 20260505200013 | 12 | 227 | 9.7 | 16.1 | 0.00 | 0.00 | 0.00 | 66 | 1005.3 |
| 20260505194519 | 12 | 240 | 8.0 | 16.1 | 0.00 | 0.00 | 0.00 | 66 | 1005.4 |
| 20260505193014 | 12 | 169 | 6.4 | 17.7 | 0.00 | 0.00 | 0.00 | 66 | 1005.5 |
| 20260505191612 | 12 | 165 | 6.4 | 17.7 | 0.00 | 0.00 | 0.00 | 66 | 1005.5 |
| 20260505190010 | 12 | 171 | 4.8 | 24.1 | 0.00 | 0.00 | 0.00 | 67 | 1005.3 |
| 20260505184510 | 11 | 172 | 12.9 | 24.1 | 0.00 | 0.00 | 0.00 | 66 | 1005.2 |
| 20260505183007 | 11 | 209 | 6.4 | 19.3 | 0.00 | 0.00 | 0.00 | 66 | 1005.3 |
| 20260505181507 | 11 | 200 | 6.4 | 17.7 | 0.00 | 0.00 | 0.00 | 68 | 1005.1 |
| 20260505180006 | 11 | 203 | 6.4 | 16.1 | 0.00 | 0.00 | 0.00 | 66 | 1005.0 |
| 20260505174505 | 11 | 196 | 6.4 | 14.5 | 0.00 | 0.00 | 0.00 | 64 | 1005.1 |
| 20260505173005 | 11 | 162 | 9.7 | 16.1 | 0.00 | 0.00 | 0.00 | 66 | 1004.8 |
| 20260505171503 | 11 | 190 | 6.4 | 16.1 | 0.00 | 0.00 | 0.00 | 64 | 1005.0 |
| 20260505170003 | 11 | 207 | 3.2 | 12.9 | 0.00 | 0.00 | 0.00 | 65 | 1004.9 |
| 20260505164501 | 10 | 217 | 3.2 | 12.9 | 0.00 | 0.00 | 0.00 | 63 | 1004.9 |
| 20260505163000 | 10 | 176 | 1.6 | 11.3 | 0.00 | 0.00 | 0.00 | 65 | 1004.8 |
| 20260505161605 | 10 | 232 | 6.4 | 11.3 | 0.00 | 0.00 | 0.00 | 63 | 1005.0 |
| 20260505153109 | 9 | 203 | 0.0 | 8.0 | 0.00 | 0.00 | 0.00 | 66 | 1005.0 |
| 20260505151555 | 9 | 238 | 1.6 | 4.8 | 0.00 | 0.00 | 0.00 | 65 | 1004.9 |